Retour au catalogue

STARLINK-6048

ActifCommunicationsVLEO
NORAD 56459·PAYLOAD·🇺🇸 United States

Lancé May 10, 2023 depuis Vandenberg Space Force Base

Loading…

Prochains Passages (prochaines 24 heures)

TLE

FraisSource: CelesTrak SupGP

Époque: Sep 14, 2026, 20:39 UTC

1 56459C 23064M   26257.86090278  .00010844  00000+0  90874-3 0  2570
2 56459  70.0031  27.3554 0003257 270.0025 150.8642 14.98325462    12

Suivez STARLINK-6048 en temps réel avec AllMySat

Download on the App Store